• In Belarus
  • List of Countries
  • For 7 days
  • Water Temperature
  • Satellite Maps
  • Weather Map
  • Weather Widgets
  • user-avatar
    Login

    Hourly Weather Zelenyy Shum

    Today, 23 April, Tuesday

    Time Temperature Precipitation Wind Pressure Humidity
    00:00 +12°C° 0 mm 1 mps 756 mmHg 49%
    01:00 +12°C° 0 mm 1 mps 756 mmHg 50%
    02:00 +10°C° 0 mm 0 mps 756 mmHg 52%
    03:00 +11°C° 0 mm 1 mps 756 mmHg 54%
    04:00 +11°C° 0 mm 1 mps 756 mmHg 56%
    05:00 +9°C° 0 mm 2 mps 756 mmHg 59%
    06:00 +12°C° 0 mm 2 mps 756 mmHg 56%
    07:00 +13°C° 0 mm 2 mps 756 mmHg 52%
    08:00 +14°C° 0 mm 2 mps 757 mmHg 49%
    09:00 +16°C° 0 mm 2 mps 756 mmHg 44%
    10:00 +17°C° 0 mm 2 mps 756 mmHg 39%
    11:00 +18°C° 0 mm 3 mps 756 mmHg 34%
    12:00 +18°C° 0 mm 2 mps 756 mmHg 34%
    13:00 +18°C° 0 mm 2 mps 756 mmHg 34%
    14:00 +18°C° 0 mm 2 mps 756 mmHg 35%
    15:00 +18°C° 0 mm 2 mps 756 mmHg 37%
    16:00 +18°C° 0 mm 2 mps 756 mmHg 40%
    17:00 +18°C° 0 mm 2 mps 755 mmHg 43%
    18:00 +16°C° 0 mm 2 mps 755 mmHg 46%
    19:00 +15°C° 0 mm 2 mps 756 mmHg 50%
    20:00 +13°C° 0 mm 2 mps 756 mmHg 53%
    21:00 +13°C° 0 mm 2 mps 756 mmHg 55%
    22:00 +12°C° 0 mm 2 mps 756 mmHg 57%
    23:00 +12°C° 0 mm 2 mps 756 mmHg 59%

    Tomorrow, 24 April, Wednesday

    Time Temperature Precipitation Wind Pressure Humidity
    00:00 +10°C° 0 mm 2 mps 756 mmHg 60%
    01:00 +10°C° 0 mm 2 mps 756 mmHg 61%
    02:00 +10°C° 0 mm 2 mps 756 mmHg 63%
    03:00 +10°C° 0 mm 2 mps 756 mmHg 64%
    04:00 +10°C° 0 mm 2 mps 756 mmHg 66%
    05:00 +10°C° 0 mm 2 mps 756 mmHg 67%
    06:00 +12°C° 0 mm 2 mps 756 mmHg 63%
    07:00 +14°C° 0 mm 2 mps 756 mmHg 59%
    08:00 +16°C° 0 mm 2 mps 757 mmHg 55%
    09:00 +17°C° 0 mm 3 mps 756 mmHg 50%
    10:00 +18°C° 0 mm 3 mps 756 mmHg 46%
    11:00 +20°C° 0 mm 3 mps 756 mmHg 41%
    12:00 +20°C° 0 mm 3 mps 756 mmHg 40%
    13:00 +21°C° 0 mm 3 mps 756 mmHg 39%
    14:00 +21°C° 0 mm 3 mps 756 mmHg 38%
    15:00 +21°C° 0 mm 3 mps 755 mmHg 41%
    16:00 +21°C° 0 mm 2 mps 755 mmHg 43%
    17:00 +20°C° 0 mm 2 mps 755 mmHg 46%
    18:00 +19°C° 0 mm 2 mps 755 mmHg 50%
    19:00 +17°C° 0 mm 2 mps 755 mmHg 54%
    20:00 +15°C° 0 mm 1 mps 755 mmHg 57%
    21:00 +15°C° 0 mm 1 mps 755 mmHg 59%
    22:00 +14°C° 0 mm 1 mps 755 mmHg 60%
    23:00 +14°C° 0 mm 1 mps 755 mmHg 62%

    Day after tomorrow, 25 April, Thursday

    Time Temperature Precipitation Wind Pressure Humidity
    00:00 +13°C° 0 mm 1 mps 755 mmHg 63%
    01:00 +13°C° 0 mm 1 mps 755 mmHg 64%
    02:00 +12°C° 0 mm 1 mps 755 mmHg 66%
    03:00 +12°C° 0 mm 1 mps 755 mmHg 67%
    04:00 +12°C° 0 mm 1 mps 755 mmHg 69%
    05:00 +12°C° 0 mm 1 mps 755 mmHg 70%
    06:00 +13°C° 0 mm 1 mps 756 mmHg 65%
    07:00 +15°C° 0 mm 1 mps 756 mmHg 60%
    08:00 +17°C° 0 mm 2 mps 756 mmHg 54%
    09:00 +18°C° 0 mm 2 mps 756 mmHg 50%
    10:00 +20°C° 0 mm 2 mps 755 mmHg 45%
    11:00 +21°C° 0 mm 2 mps 755 mmHg 40%
    12:00 +23°C° 0 mm 2 mps 755 mmHg 39%
    13:00 +23°C° 0 mm 2 mps 755 mmHg 37%
    14:00 +24°C° 0 mm 1 mps 755 mmHg 36%
    15:00 +24°C° 0 mm 1 mps 754 mmHg 38%
    16:00 +23°C° 0 mm 1 mps 754 mmHg 39%
    17:00 +21°C° 0 mm 0 mps 754 mmHg 41%
    18:00 +20°C° 0 mm 0 mps 754 mmHg 45%
    19:00 +18°C° 0 mm 0 mps 754 mmHg 48%
    20:00 +16°C° 0 mm 0 mps 754 mmHg 52%
    21:00 +16°C° 0 mm 0 mps 754 mmHg 53%
    22:00 +16°C° 0 mm 0 mps 754 mmHg 54%
    23:00 +16°C° 0 mm 0 mps 754 mmHg 55%

    26 April, Friday

    Time Temperature Precipitation Wind Pressure Humidity
    00:00 +15°C° 0.1 mm 0 mps 754 mmHg 58%
    01:00 +15°C° 0.1 mm 0 mps 754 mmHg 60%
    02:00 +14°C° 0.1 mm 0 mps 754 mmHg 62%
    03:00 +14°C° 0.2 mm 0 mps 754 mmHg 65%
    04:00 +14°C° 0.2 mm 0 mps 753 mmHg 67%
    05:00 +13°C° 0.2 mm 0 mps 753 mmHg 70%
    06:00 +15°C° 0.2 mm 0 mps 753 mmHg 66%
    07:00 +18°C° 0.2 mm 1 mps 754 mmHg 62%
    08:00 +19°C° 0.2 mm 1 mps 754 mmHg 58%
    09:00 +20°C° 0.1 mm 1 mps 753 mmHg 54%
    10:00 +22°C° 0.1 mm 1 mps 753 mmHg 50%
    11:00 +23°C° 0.1 mm 1 mps 753 mmHg 46%
    12:00 +23°C° 0.1 mm 1 mps 753 mmHg 47%
    13:00 +23°C° 0.1 mm 2 mps 753 mmHg 47%
    14:00 +23°C° 0.1 mm 2 mps 753 mmHg 48%
    15:00 +21°C° 0.2 mm 2 mps 752 mmHg 52%
    16:00 +20°C° 0.2 mm 2 mps 752 mmHg 56%
    17:00 +20°C° 0.2 mm 2 mps 752 mmHg 59%
    18:00 +19°C° 0.9 mm 1 mps 752 mmHg 63%
    19:00 +18°C° 0.9 mm 1 mps 752 mmHg 67%
    20:00 +15°C° 0.9 mm 0 mps 752 mmHg 71%
    21:00 +15°C° 0 mm 1 mps 752 mmHg 71%
    22:00 +15°C° 0 mm 1 mps 751 mmHg 72%
    23:00 +14°C° 0 mm 1 mps 751 mmHg 73%

    27 April, Saturday

    Time Temperature Precipitation Wind Pressure Humidity
    00:00 +14°C° 0 mm 1 mps 751 mmHg 73%
    01:00 +14°C° 0 mm 1 mps 751 mmHg 73%
    02:00 +15°C° 0 mm 1 mps 751 mmHg 73%
    03:00 +14°C° 0 mm 1 mps 751 mmHg 74%
    04:00 +14°C° 0 mm 2 mps 751 mmHg 75%
    05:00 +14°C° 0 mm 2 mps 751 mmHg 75%
    06:00 +15°C° 0 mm 2 mps 751 mmHg 72%
    07:00 +17°C° 0 mm 2 mps 751 mmHg 69%
    08:00 +18°C° 0 mm 3 mps 750 mmHg 65%
    09:00 +19°C° 0 mm 3 mps 750 mmHg 59%
    10:00 +20°C° 0 mm 4 mps 750 mmHg 52%
    11:00 +21°C° 0 mm 4 mps 750 mmHg 45%
    12:00 +21°C° 0 mm 4 mps 749 mmHg 48%
    13:00 +21°C° 0 mm 3 mps 749 mmHg 50%
    14:00 +21°C° 0 mm 3 mps 749 mmHg 53%
    15:00 +21°C° 0 mm 3 mps 748 mmHg 54%
    16:00 +21°C° 0 mm 3 mps 748 mmHg 55%
    17:00 +21°C° 0 mm 3 mps 748 mmHg 55%
    18:00 +19°C° 0 mm 3 mps 748 mmHg 58%
    19:00 +18°C° 0 mm 3 mps 748 mmHg 61%
    20:00 +17°C° 0 mm 3 mps 748 mmHg 64%
    21:00 +17°C° 0.2 mm 3 mps 748 mmHg 66%
    22:00 +16°C° 0.2 mm 3 mps 747 mmHg 69%
    23:00 +16°C° 0.2 mm 3 mps 747 mmHg 71%

    28 April, Sunday

    Time Temperature Precipitation Wind Pressure Humidity
    00:00 +14°C° 0.3 mm 3 mps 747 mmHg 73%
    01:00 +14°C° 0.3 mm 3 mps 747 mmHg 75%
    02:00 +13°C° 0.3 mm 3 mps 747 mmHg 78%
    03:00 +13°C° 0 mm 3 mps 747 mmHg 79%
    04:00 +13°C° 0 mm 3 mps 747 mmHg 81%
    05:00 +13°C° 0 mm 3 mps 747 mmHg 82%
    06:00 +14°C° 0 mm 3 mps 747 mmHg 78%
    07:00 +16°C° 0 mm 3 mps 747 mmHg 74%
    08:00 +17°C° 0 mm 4 mps 747 mmHg 69%
    09:00 +18°C° 0 mm 4 mps 747 mmHg 64%
    10:00 +19°C° 0 mm 4 mps 747 mmHg 58%
    11:00 +20°C° 0 mm 4 mps 747 mmHg 53%
    12:00 +21°C° 0 mm 4 mps 747 mmHg 53%
    13:00 +21°C° 0 mm 4 mps 747 mmHg 52%
    14:00 +22°C° 0 mm 3 mps 747 mmHg 52%
    15:00 +21°C° 0.3 mm 3 mps 746 mmHg 57%
    16:00 +20°C° 0.3 mm 2 mps 746 mmHg 62%
    17:00 +20°C° 0.3 mm 2 mps 746 mmHg 67%
    18:00 +19°C° 0.2 mm 2 mps 746 mmHg 70%
    19:00 +18°C° 0.2 mm 2 mps 746 mmHg 73%
    20:00 +17°C° 0.2 mm 2 mps 746 mmHg 76%
    21:00 +16°C° 0 mm 3 mps 746 mmHg 77%
    22:00 +14°C° 0 mm 3 mps 747 mmHg 78%
    23:00 +14°C° 0 mm 4 mps 747 mmHg 79%
    Show more